Location: Auma
(50.7004°N, 11.8996°E)
Time: 00:31:39
(UTC+00:00)

Daily predictions for brighter satellites

Satellite Brightness Start Highest point End
(mag) Time Altitude Azimuth Time Altitude Azimuth Time Altitude Azimuth
Cosmos 1980 Rocket 4.2 01:10:32 23° NNE 01:10:32 23° NNE 01:12:34 10° NNE
ATLAS 3B R/B 4.2 01:11:14 28° N 01:12:04 28° NNE 01:17:47 10° ENE
CENTAUR R/B 4.2 01:23:40 28° NNW 01:26:36 36° NNE 01:34:08 10° E
Resurs 1-4 Rocket 4.2 01:24:58 10° NNE 01:26:36 20° N 01:26:36 20° N
Lacrosse 4 Rocket 4.2 01:56:09 14° NNE 01:56:09 14° NNE 01:56:48 10° NNE
CZ-2D R/B 4.1 01:53:15 10° N 01:54:53 20° N 01:54:53 20° N
NOSS 3-2 (A) 4.4 01:56:42 33° NNW 02:00:01 56° NE 02:08:00 10° ESE
SL-16 R/B 3.1 02:02:37 45° NNE 02:02:37 45° NNE 02:06:29 10° NNE
ADEOS II 3.3 01:58:54 10° NNE 02:02:01 37° NNE 02:02:01 37° NNE
USA 267 3.3 02:05:28 10° ENE 02:11:54 69° SE 02:11:54 69° SE
BREEZE-M DEB (TANK) 4.5 02:14:51 29° ESE 02:14:51 29° ESE 02:16:50 10° E
Cosmos 2219 Rocket 4.3 02:12:09 13° SE 02:15:19 21° E 02:19:24 10° NE
ARIANE 5 R/B 3.7 02:17:00 10° NNE 02:19:49 34° N 02:19:49 34° N
COSMOS 2455 3.7 02:27:14 39° SSE 02:28:33 44° ESE 02:34:15 10° NE
Cosmos 2322 Rocket 2.6 02:34:29 54° N 02:34:29 54° N 02:39:04 10° NNE
USA 229 DEB 4.4 02:33:32 38° NW 02:34:15 38° NNW 02:40:50 10° NE
USA 229 4.4 02:33:39 38° NW 02:34:20 39° NNW 02:40:54 10° NE
NOSS 3-1 (A) 4.0 02:38:09 44° NW 02:38:20 44° NNW 02:44:57 10° NE
Meteor 1-23 Rocket 4.1 02:40:22 82° N 02:40:22 82° N 02:45:43 10° NNE
IDEFIX/ARIANE 42P 3.5 02:36:03 10° NNE 02:41:07 46° E 02:44:01 23° SSE
Cosmos 2360 Rocket 2.0 02:45:05 85° S 02:45:15 88° ESE 02:50:57 10° NNE
ATLAS 5 CENTAUR R/B 4.0 02:43:37 26° NNW 02:45:24 33° NNE 02:55:42 10° E
USA 234 3.3 02:41:28 10° SE 02:47:40 56° SSW 02:47:40 56° SSW
Intercosmos 25 4.5 02:47:18 10° N 02:51:37 65° E 02:58:33 10° SSE
Cosmos 1980 Rocket 3.8 02:52:18 21° NNW 02:52:18 21° NNW 02:56:06 10° NNE
Meteor 2-21 4.3 02:52:08 60° SSW 02:53:20 80° WNW 02:59:34 10° N
Cosmos 1992 Rocket 3.9 02:51:25 10° NNW 02:56:41 89° ENE 03:01:53 10° SSE
NOSS 3-1 (C) 4.5 02:55:45 31° NW 02:57:06 34° NNW 03:03:29 10° NE
Cosmos 1066 Rocket 4.0 02:57:47 70° SW 02:58:24 82° WNW 03:03:57 10° N
Cosmos 1844 Rocket 4.5 03:07:00 16° S 03:07:00 16° S 03:08:11 10° S
ATLAS 3B R/B 3.2 02:58:30 14° NW 03:04:08 56° NE 03:10:49 10° ESE
Cosmos 2251 Rocket 3.6 03:04:47 41° S 03:06:41 75° ESE 03:12:05 10° NNE
Aureole 1 Rocket 4.4 03:00:50 10° S 03:07:12 53° ESE 03:12:11 10° NNE
Resurs 1-4 Rocket 4.2 03:06:19 10° NNW 03:07:40 13° NNW 03:07:40 13° NNW
Spot 2 3.9 03:05:28 10° NNE 03:09:33 80° ESE 03:09:37 80° SE
Cosmos 2098 Rocket 4.3 03:09:04 35° SW 03:12:22 65° WNW 03:19:45 10° N
Meteor 1-22 Rocket 3.9 03:07:15 10° NNW 03:12:42 79° W 03:17:58 10° S
Cosmos 1709 Rocket 3.9 03:09:43 20° S 03:14:20 86° WNW 03:20:43 10° N
Cosmos 292 Rocket 4.3 03:12:11 10° NNW 03:16:56 60° ENE 03:21:41 10° SE
MSX 4.2 03:11:34 10° NNE 03:17:16 63° ESE 03:22:56 10° S
CENTAUR R/B 3.3 03:10:52 10° NW 03:18:36 73° NE 03:27:13 10° SE
Cosmos 2278 Rocket 2.5 03:14:11 10° NNW 03:19:53 68° ENE 03:25:32 10° SE
Cosmos 44 3.6 03:18:49 25° NNW 03:21:13 55° NE 03:25:28 10° ESE
Cosmos 2333 Rocket 2.6 03:17:32 19° S 03:21:37 63° ESE 03:27:16 10° NE
NOSS 2-2 (C) 4.3 03:21:24 32° S 03:22:35 42° SE 03:26:34 10° NE
ATLAS 2AS CENTAUR R/B 4.0 03:15:31 10° S 03:23:02 47° ESE 03:30:36 10° NE
Cosmos 1844 4.0 03:24:00 43° WSW 03:24:00 43° WSW 03:29:08 10° S
USA 238 DEB 3.8 03:19:19 21° NW 03:24:22 63° SW 03:31:38 10° SSE
USA 238 3.8 03:19:24 20° NW 03:24:28 64° SW 03:31:44 10° SSE
Cosmos 1975 Rocket 3.9 03:32:12 34° NW 03:32:12 34° NW 03:35:32 10° N
Lacrosse 4 Rocket 3.4 03:32:28 15° NNW 03:32:28 15° NNW 03:34:37 10° N
Cosmos 1953 3.8 03:30:24 10° N 03:34:14 39° ENE 03:38:01 10° SE
ADEOS 3.5 03:29:34 10° NNE 03:34:47 71° WNW 03:38:16 21° SSW
Gblst 52 Del rocket 4.1 03:33:03 38° W 03:35:14 82° N 03:41:03 10° E
Cosmos 2333 4.1 03:34:26 29° SW 03:37:23 76° WNW 03:43:05 10° NNE
Cosmos 1758 3.4 03:36:20 10° N 03:40:20 75° ENE 03:44:21 10° SSE
COSMO-SKYMED 1 3.9 03:38:26 10° SE 03:42:31 41° ENE 03:46:37 10° N
ADEOS II 3.6 03:39:36 10° N 03:42:56 20° NW 03:42:56 20° NW
Okean 2 3.9 03:43:41 39° WNW 03:43:41 39° WNW 03:47:25 10° N
BREEZE-M R/B 4.2 03:42:48 31° WSW 03:45:26 73° SSE 03:55:56 10° E
SL-16 R/B 3.4 03:44:29 22° WNW 03:45:39 24° NW 03:50:13 10° NNE
Cosmos 1378 3.2 03:46:03 46° WSW 03:46:42 54° WNW 03:50:25 10° N
Cosmos 2322 3.8 03:44:04 29° WSW 03:46:52 57° NW 03:52:33 10° NNE
Cosmos 2074 Rocket 4.2 03:44:00 10° S 03:50:14 76° E 03:56:28 10° NNE
NOSS 3-2 (A) 4.1 03:44:09 11° NW 03:51:09 55° WSW 03:59:12 10° SSE
Cosmos 2181 Rocket 4.1 03:45:47 10° NNW 03:51:57 51° W 03:57:59 10° SSW
H-2A R/B 2.4 03:48:48 10° N 03:52:51 66° WNW 03:56:28 14° SSW
Okean O Rocket 4.3 03:50:17 10° NE 03:53:43 22° E 03:57:08 10° SE
CZ-4B R/B 4.1 03:50:23 10° NNE 03:54:15 67° ESE 03:58:16 10° S
USA 267 3.4 03:48:35 10° ENE 03:55:02 62° NNW 03:59:15 23° W
USA 32 3.9 03:49:57 10° S 03:55:10 85° W 04:00:28 10° N
COSMOS 2441 4.3 03:51:55 10° N 03:56:50 70° WNW 04:01:42 10° SSW
Cosmos 2219 Rocket 2.1 03:53:56 15° SW 03:58:40 75° WNW 04:04:18 10° NNE
NOSS 2-2 (E) 3.2 03:56:51 29° SW 03:58:44 81° NW 04:03:13 10° NE
ARIANE 5 R/B 4.2 03:57:42 10° NNW 04:00:09 14° NW 04:00:09 14° NW
NOSS 0 Rocket 4.3 03:55:24 10° SSW 04:01:29 65° ESE 04:07:37 10° NE
SJ-6F 4.3 03:57:22 10° N 04:01:35 76° WNW 04:05:42 10° SSW
PSLV R/B 4.1 03:59:12 10° N 04:03:05 35° WNW 04:04:42 26° WSW
Cosmos 2237 Rocket 2.9 03:58:36 10° S 04:04:08 56° ESE 04:09:42 10° NE
Cosmos 2058 Rocket 4.4 04:03:32 10° N 04:07:44 42° ENE 04:11:56 10° SE
Meteor 1-31 Rocket 2.6 04:04:01 10° NNE 04:07:51 85° WNW 04:11:39 10° SSW
Cosmos 2228 3.4 04:04:15 10° N 04:08:32 65° ENE 04:12:45 10° SSE
ERBS 3.8 04:06:25 10° SSW 04:09:26 33° SE 04:12:31 10° ENE
Cosmos 1025 Rocket 3.1 04:06:28 10° SSW 04:10:37 50° WNW 04:14:48 10° N
NOSS 8 (F) 4.5 04:11:14 30° W 04:12:23 49° NW 04:15:32 10° NE
COSMOS 2428 2.7 04:07:23 12° SW 04:12:35 62° NW 04:18:14 10° NNE
NOSS 3-2 (C) 4.1 04:05:46 10° NW 04:13:04 58° SW 04:21:12 10° SSE
Cosmos 489 Rocket 4.5 04:07:41 10° NNW 04:13:49 59° WSW 04:19:57 10° S
COSMOS 2455 3.2 04:10:26 19° WSW 04:14:32 47° NW 04:20:22 10° NNE
CZ-2C R/B 2.5 04:11:10 10° N 04:16:20 67° WNW 04:21:28 10° SSW
Cosmos 1470 3.0 04:12:55 10° NNW 04:16:43 45° W 04:20:26 10° SSW
Cosmos 2369 Rocket 4.1 04:12:52 10° NNW 04:17:34 27° NE 04:22:16 10° E
COBE Rocket 4.0 04:13:17 10° SSE 04:18:19 89° E 04:23:30 10° NNW
Cosmos 2322 Rocket 3.8 04:16:19 14° WNW 04:18:40 18° NNW 04:22:31 10° N
Cosmos 1733 4.4 04:16:37 10° NW 04:19:37 22° W 04:22:37 10° SW
Cosmos 921 Rocket 3.6 04:15:53 10° NW 04:19:49 34° WSW 04:23:39 10° SSW
Meteor PRIRODA 3.7 04:16:41 10° NNE 04:20:27 88° ESE 04:24:11 10° SSW
Cosmos 1980 3.9 04:14:52 10° SSW 04:20:31 76° ESE 04:26:11 10° NNE
IDEFIX/ARIANE 42P 3.3 04:15:57 10° N 04:20:34 32° WNW 04:24:49 12° WSW
Cosmos 389 Rocket 2.3 04:18:56 10° S 04:22:22 90° ENE 04:25:50 10° NNE
Cosmos 1536 Rocket 4.1 04:18:40 10° SW 04:22:38 35° WNW 04:26:39 10° N
Cosmos 1842 4.1 04:21:09 16° WSW 04:23:39 28° WNW 04:27:07 10° N
Cosmos 1484 Rocket 3.0 04:21:46 10° NNE 04:25:31 69° ESE 04:29:18 10° S
Cosmos 1707 2.6 04:21:45 10° SSW 04:25:40 76° W 04:29:36 10° N
Cosmos 2360 Rocket 3.4 04:26:53 15° W 04:30:01 24° NW 04:34:33 10° NNE
SKYMED 2 3.5 04:26:08 10° S 04:30:28 72° WSW 04:34:51 10° NNW
NOSS 3-4 (A) 3.8 04:26:57 10° SSW 04:32:56 69° SE 04:39:21 10° NE
NOSS 3-4 (C) 3.8 04:27:02 10° SSW 04:33:01 69° SE 04:39:27 10° NE
PAYLOAD A 4.4 04:31:11 10° N 04:35:35 38° WNW 04:40:06 10° SW
NOSS 2-2 (D) 3.6 04:33:19 13° WSW 04:36:31 51° NW 04:40:56 10° NE
GP-B 3.1 04:32:35 10° S 04:37:02 82° W 04:41:30 10° N
Cosmos 1140 Rocket 3.7 04:35:08 10° SSW 04:40:19 79° ESE 04:45:31 10° NNE
Cosmos 1892 Rocket 3.8 04:36:36 10° S 04:41:02 76° E 04:45:27 10° NNE
ALOS 3.0 04:36:38 10° NNE 04:41:16 59° E 04:45:53 10° S
Meteor 2-10 4.0 04:38:33 10° NNW 04:43:42 85° W 04:48:58 10° S
CZ-4B R/B 3.4 04:40:22 10° N 04:44:17 39° WNW 04:47:58 10° SW
Meteor 1-16 Rocket 4.1 04:43:35 10° NNW 04:48:50 64° W 04:54:06 10° S
Cosmos 614 Rocket 4.0 04:44:40 10° SW 04:49:52 65° WNW 04:55:05 10° NNE
Cosmos 2154 Rocket 4.0 04:43:50 10° SSW 04:50:00 69° WNW 04:56:13 10° N
Aureole 1 Rocket 4.4 04:46:21 10° WSW 04:51:51 32° WNW 04:56:14 10° N
Cosmos 1606 Rocket 3.9 04:48:19 10° NNW 04:52:23 40° W 04:56:25 10° SSW
Cosmos 1356 3.5 04:50:37 10° NNW 04:54:00 52° W 04:57:22 10° S
ATLAS 3B R/B 3.0 04:48:27 10° NW 04:54:47 46° WSW 05:01:13 10° S
SL-16 R/B 3.1 04:49:33 10° S 04:55:02 54° ESE 05:00:35 10° NE
Cosmos 44 Rocket 3.3 04:51:36 10° NW 04:56:22 86° NE 05:01:05 10° SE
Cosmos 2184 Rocket 4.4 04:54:37 10° SW 05:00:23 39° WNW 05:06:16 10° N
Okean 1-7 Rocket 3.6 04:56:00 10° SSW 05:00:25 71° WNW 05:04:56 10° N
NOAA 6 4.3 04:55:34 10° NNE 05:00:47 77° ESE 05:05:58 10° S
Cosmos 2297 3.8 04:55:17 10° NNW 05:01:01 68° WSW 05:06:42 10° SSE
Meteor 2-5 Rocket 4.3 04:55:39 10° S 05:01:22 69° E 05:07:15 10° NNE
Cosmos 44 4.2 04:58:35 10° WNW 05:02:05 24° WSW 05:05:33 10° S
Cosmos 1943 Rocket 3.1 04:57:53 10° NNW 05:03:26 52° NE 05:08:58 10° SE
Cosmos 2278 Rocket 3.2 04:59:01 10° NW 05:03:28 24° WSW 05:07:54 10° SSW
Cosmos 1726 2.2 05:00:15 10° NNW 05:03:50 54° W 05:07:25 10° S
FENGYUN 3A 3.8 04:58:53 10° NNE 05:04:22 86° ESE 05:09:49 10° SSW
Helios 1A Rocket 2.9 05:00:39 10° N 05:04:48 72° WNW 05:08:56 10° SSW
Cosmos 1674 2.9 05:01:29 10° S 05:05:11 73° E 05:08:55 10° NNE
Cosmos 2333 Rocket 3.1 05:01:20 10° WSW 05:06:19 31° NW 05:11:22 10° NNE
ASTEX 1 3.6 05:01:51 10° SSE 05:06:44 80° E 05:11:39 10° N
Nadezhda 3 Rocket 4.4 05:02:33 10° NNW 05:08:30 42° W 05:14:23 10° SSW
CENTAUR R/B 3.6 05:01:49 10° NW 05:09:11 41° WSW 05:17:05 10° S
